Year,Month,Day,Hour,Minute,Value (Times are PST for temperature in C)
2009,05,21,00,00,8.20
2009,05,21,00,01,8.20
2009,05,21,00,02,8.20
2009,05,21,00,03,8.20
2009,05,21,00,04,8.20
2009,05,21,00,05,8.20
2009,05,21,00,06,8.20
2009,05,21,00,07,8.20
2009,05,21,00,08,8.20
2009,05,21,00,09,8.20
2009,05,21,00,10,8.20
2009,05,21,00,11,8.20
2009,05,21,00,12,8.30
2009,05,21,00,13,8.30
2009,05,21,00,14,8.30
2009,05,21,00,15,8.30
2009,05,21,00,16,8.30
2009,05,21,00,17,8.30
2009,05,21,00,18,8.30
2009,05,21,00,19,8.30
2009,05,21,00,20,8.20
2009,05,21,00,21,8.20
2009,05,21,00,22,8.20
2009,05,21,00,23,8.20
2009,05,21,00,24,8.20
2009,05,21,00,25,8.20
2009,05,21,00,26,8.10
2009,05,21,00,27,8.10
2009,05,21,00,28,8.00
2009,05,21,00,29,8.00
2009,05,21,00,30,8.00
2009,05,21,00,31,8.00
2009,05,21,00,32,7.90
2009,05,21,00,33,7.90
2009,05,21,00,34,7.90
2009,05,21,00,35,7.80
2009,05,21,00,36,7.80
2009,05,21,00,37,7.80
2009,05,21,00,38,7.80
2009,05,21,00,39,7.80
2009,05,21,00,40,7.70
2009,05,21,00,41,7.70
2009,05,21,00,42,7.60
2009,05,21,00,43,7.60
2009,05,21,00,44,7.60
2009,05,21,00,45,7.50
2009,05,21,00,46,7.50
2009,05,21,00,47,7.50
2009,05,21,00,48,7.50
2009,05,21,00,49,7.40
2009,05,21,00,50,7.40
2009,05,21,00,51,7.40
2009,05,21,00,52,7.40
2009,05,21,00,53,7.30
2009,05,21,00,54,7.30
2009,05,21,00,55,7.30
2009,05,21,00,56,7.30
2009,05,21,00,57,7.30
2009,05,21,00,58,7.30
2009,05,21,00,59,7.20
2009,05,21,01,00,7.20
2009,05,21,01,01,7.20
2009,05,21,01,02,7.10
2009,05,21,01,03,7.10
2009,05,21,01,04,7.10
2009,05,21,01,05,7.10
2009,05,21,01,06,7.10
2009,05,21,01,07,7.10
2009,05,21,01,08,7.10
2009,05,21,01,09,7.10
2009,05,21,01,10,7.00
2009,05,21,01,11,7.00
2009,05,21,01,12,7.00
2009,05,21,01,13,7.00
2009,05,21,01,14,7.00
2009,05,21,01,15,6.90
2009,05,21,01,16,6.90
2009,05,21,01,17,6.90
2009,05,21,01,18,6.90
2009,05,21,01,19,6.80
2009,05,21,01,20,6.80
2009,05,21,01,21,6.80
2009,05,21,01,22,6.80
2009,05,21,01,23,6.80
2009,05,21,01,24,6.80
2009,05,21,01,25,6.80
2009,05,21,01,26,6.80
2009,05,21,01,27,6.80
2009,05,21,01,28,6.80
2009,05,21,01,29,6.80
2009,05,21,01,30,6.80
2009,05,21,01,31,6.80
2009,05,21,01,32,6.80
2009,05,21,01,33,6.80
2009,05,21,01,34,6.80
2009,05,21,01,35,6.70
2009,05,21,01,36,6.70
2009,05,21,01,37,6.70
2009,05,21,01,38,6.70
2009,05,21,01,39,6.70
2009,05,21,01,40,6.70
2009,05,21,01,41,6.70
2009,05,21,01,42,6.70
2009,05,21,01,43,6.70
2009,05,21,01,44,6.60
2009,05,21,01,45,6.60
2009,05,21,01,46,6.60
2009,05,21,01,47,6.60
2009,05,21,01,48,6.60
2009,05,21,01,49,6.60
2009,05,21,01,50,6.60
2009,05,21,01,51,6.60
2009,05,21,01,52,6.60
2009,05,21,01,53,6.40
2009,05,21,01,54,6.40
2009,05,21,01,55,6.40
2009,05,21,01,56,6.40
2009,05,21,01,57,6.40
2009,05,21,01,58,6.40
2009,05,21,01,59,6.40
2009,05,21,02,00,6.40
2009,05,21,02,01,6.30
2009,05,21,02,02,6.30
2009,05,21,02,03,6.30
2009,05,21,02,04,6.30
2009,05,21,02,05,6.20
2009,05,21,02,06,6.20
2009,05,21,02,07,6.20
2009,05,21,02,08,6.20
2009,05,21,02,09,6.20
2009,05,21,02,10,6.20
2009,05,21,02,11,6.20
2009,05,21,02,12,6.20
2009,05,21,02,13,6.20
2009,05,21,02,14,6.20
2009,05,21,02,15,6.20
2009,05,21,02,16,6.20
2009,05,21,02,17,6.20
2009,05,21,02,18,6.20
2009,05,21,02,19,6.10
2009,05,21,02,20,6.10
2009,05,21,02,21,6.10
2009,05,21,02,22,6.10
2009,05,21,02,23,6.10
2009,05,21,02,24,6.10
2009,05,21,02,25,6.10
2009,05,21,02,26,6.00
2009,05,21,02,27,6.00
2009,05,21,02,28,6.00
2009,05,21,02,29,6.00
2009,05,21,02,30,6.00
2009,05,21,02,31,6.00
2009,05,21,02,32,6.00
2009,05,21,02,33,6.00
2009,05,21,02,34,6.00
2009,05,21,02,35,6.00
2009,05,21,02,36,6.00
2009,05,21,02,37,6.00
2009,05,21,02,38,6.00
2009,05,21,02,39,6.10
2009,05,21,02,40,6.10
2009,05,21,02,41,6.10
2009,05,21,02,42,6.00
2009,05,21,02,43,6.00
2009,05,21,02,44,6.00
2009,05,21,02,45,6.00
2009,05,21,02,46,6.00
2009,05,21,02,47,6.00
2009,05,21,02,48,6.00
2009,05,21,02,49,5.90
2009,05,21,02,50,5.90
2009,05,21,02,51,5.90
2009,05,21,02,52,5.90
2009,05,21,02,53,5.80
2009,05,21,02,54,5.80
2009,05,21,02,55,5.80
2009,05,21,02,56,5.80
2009,05,21,02,57,5.70
2009,05,21,02,58,5.70
2009,05,21,02,59,5.70
2009,05,21,03,00,5.70
2009,05,21,03,01,5.70
2009,05,21,03,02,5.70
2009,05,21,03,03,5.70
2009,05,21,03,04,5.70
2009,05,21,03,05,5.70
2009,05,21,03,06,5.70
2009,05,21,03,07,5.70
2009,05,21,03,08,5.70
2009,05,21,03,09,5.70
2009,05,21,03,10,5.70
2009,05,21,03,11,5.70
2009,05,21,03,12,5.70
2009,05,21,03,13,5.70
2009,05,21,03,14,5.70
2009,05,21,03,15,5.60
2009,05,21,03,16,5.60
2009,05,21,03,17,5.60
2009,05,21,03,18,5.60
2009,05,21,03,19,5.50
2009,05,21,03,20,5.50
2009,05,21,03,21,5.50
2009,05,21,03,22,5.50
2009,05,21,03,23,5.50
2009,05,21,03,24,5.50
2009,05,21,03,25,5.50
2009,05,21,03,26,5.40
2009,05,21,03,27,5.40
2009,05,21,03,28,5.40
2009,05,21,03,29,5.40
2009,05,21,03,30,5.40
2009,05,21,03,31,5.40
2009,05,21,03,32,5.40
2009,05,21,03,33,5.40
2009,05,21,03,34,5.40
2009,05,21,03,35,5.40
2009,05,21,03,36,5.40
2009,05,21,03,37,5.30
2009,05,21,03,38,5.30
2009,05,21,03,39,5.30
2009,05,21,03,40,5.30
2009,05,21,03,41,5.30
2009,05,21,03,42,5.30
2009,05,21,03,43,5.30
2009,05,21,03,44,5.30
2009,05,21,03,45,5.30
2009,05,21,03,46,5.30
2009,05,21,03,47,5.30
2009,05,21,03,48,5.30
2009,05,21,03,49,5.30
2009,05,21,03,50,5.30
2009,05,21,03,51,5.30
2009,05,21,03,52,5.30
2009,05,21,03,53,5.30
2009,05,21,03,54,5.30
2009,05,21,03,55,5.30
2009,05,21,03,56,5.30
2009,05,21,03,57,5.30
2009,05,21,03,58,5.30
2009,05,21,03,59,5.30
2009,05,21,04,00,5.30
2009,05,21,04,01,5.30
2009,05,21,04,02,5.30
2009,05,21,04,03,5.20
2009,05,21,04,04,5.20
2009,05,21,04,05,5.20
2009,05,21,04,06,5.20
2009,05,21,04,07,5.20
2009,05,21,04,08,5.20
2009,05,21,04,09,5.10
2009,05,21,04,10,5.10
2009,05,21,04,11,5.10
2009,05,21,04,12,5.10
2009,05,21,04,13,5.10
2009,05,21,04,14,5.10
2009,05,21,04,15,5.10
2009,05,21,04,16,5.10
2009,05,21,04,17,5.10
2009,05,21,04,18,5.10
2009,05,21,04,19,5.10
2009,05,21,04,20,5.10
2009,05,21,04,21,5.00
2009,05,21,04,22,4.90
2009,05,21,04,23,4.90
2009,05,21,04,24,4.90
2009,05,21,04,25,4.90
2009,05,21,04,26,4.90
2009,05,21,04,27,4.90
2009,05,21,04,28,4.90
2009,05,21,04,29,4.90
2009,05,21,04,30,4.90
2009,05,21,04,31,4.90
2009,05,21,04,32,4.90
2009,05,21,04,33,4.90
2009,05,21,04,34,4.90
2009,05,21,04,35,4.90
2009,05,21,04,36,4.90
2009,05,21,04,37,4.90
2009,05,21,04,38,4.90
2009,05,21,04,39,4.90
2009,05,21,04,40,4.90
2009,05,21,04,41,4.90
2009,05,21,04,42,4.90
2009,05,21,04,43,4.90
2009,05,21,04,44,4.90
2009,05,21,04,45,4.90
2009,05,21,04,46,4.80
2009,05,21,04,47,4.80
2009,05,21,04,48,4.80
2009,05,21,04,49,4.80
2009,05,21,04,50,4.80
2009,05,21,04,51,4.80
2009,05,21,04,52,4.80
2009,05,21,04,53,4.80
2009,05,21,04,54,4.70
2009,05,21,04,55,4.70
2009,05,21,04,56,4.70
2009,05,21,04,57,4.70
2009,05,21,04,58,4.70
2009,05,21,04,59,4.70
2009,05,21,05,00,4.70
2009,05,21,05,01,4.70
2009,05,21,05,02,4.60
2009,05,21,05,03,4.60
2009,05,21,05,04,4.60
2009,05,21,05,05,4.60
2009,05,21,05,06,4.60
2009,05,21,05,07,4.60
2009,05,21,05,08,4.60
2009,05,21,05,09,4.60
2009,05,21,05,10,4.60
2009,05,21,05,11,4.60
2009,05,21,05,12,4.60
2009,05,21,05,13,4.60
2009,05,21,05,14,4.60
2009,05,21,05,15,4.60
2009,05,21,05,16,4.60
2009,05,21,05,17,4.60
2009,05,21,05,18,4.50
2009,05,21,05,19,4.50
2009,05,21,05,20,4.50
2009,05,21,05,21,4.50
2009,05,21,05,22,4.50
2009,05,21,05,23,4.50
2009,05,21,05,24,4.50
2009,05,21,05,25,4.50
2009,05,21,05,26,4.50
2009,05,21,05,27,4.50
2009,05,21,05,28,4.50
2009,05,21,05,29,4.50
2009,05,21,05,30,4.50
2009,05,21,05,31,4.50
2009,05,21,05,32,4.50
2009,05,21,05,33,4.50
2009,05,21,05,34,4.40
2009,05,21,05,35,4.40
2009,05,21,05,36,4.40
2009,05,21,05,37,4.40
2009,05,21,05,38,4.40
2009,05,21,05,39,4.40
2009,05,21,05,40,4.40
2009,05,21,05,41,4.40
2009,05,21,05,42,4.40
2009,05,21,05,43,4.50
2009,05,21,05,44,4.50
2009,05,21,05,45,4.50
2009,05,21,05,46,4.50
2009,05,21,05,47,4.60
2009,05,21,05,48,4.60
2009,05,21,05,49,4.60
2009,05,21,05,50,4.60
2009,05,21,05,51,4.60
2009,05,21,05,52,4.70
2009,05,21,05,53,4.70
2009,05,21,05,54,4.70
2009,05,21,05,55,4.70
2009,05,21,05,56,4.80
2009,05,21,05,57,4.80
2009,05,21,05,58,4.80
2009,05,21,05,59,4.90
2009,05,21,06,00,4.90
2009,05,21,06,01,4.90
2009,05,21,06,02,5.00
2009,05,21,06,03,5.10
2009,05,21,06,04,5.10
2009,05,21,06,05,5.10
2009,05,21,06,06,5.20
2009,05,21,06,07,5.20
2009,05,21,06,08,5.30
2009,05,21,06,09,5.30
2009,05,21,06,10,5.30
2009,05,21,06,11,5.30
2009,05,21,06,12,5.30
2009,05,21,06,13,5.40
2009,05,21,06,14,5.50
2009,05,21,06,15,5.60
2009,05,21,06,16,5.70
2009,05,21,06,17,5.70
2009,05,21,06,18,5.80
2009,05,21,06,19,5.90
2009,05,21,06,20,6.00
2009,05,21,06,21,6.10
2009,05,21,06,22,6.20
2009,05,21,06,23,6.20
2009,05,21,06,24,6.20
2009,05,21,06,25,6.20
2009,05,21,06,26,6.30
2009,05,21,06,27,6.30
2009,05,21,06,28,6.40
2009,05,21,06,29,6.40
2009,05,21,06,30,6.40
2009,05,21,06,31,6.60
2009,05,21,06,32,6.60
2009,05,21,06,33,6.60
2009,05,21,06,34,6.70
2009,05,21,06,35,6.80
2009,05,21,06,36,6.80
2009,05,21,06,37,7.00
2009,05,21,06,38,7.10
2009,05,21,06,39,7.20
2009,05,21,06,40,7.30
2009,05,21,06,41,7.40
2009,05,21,06,42,7.50
2009,05,21,06,43,7.60
2009,05,21,06,44,7.70
2009,05,21,06,45,7.80
2009,05,21,06,46,7.90
2009,05,21,06,47,8.00
2009,05,21,06,48,8.10
2009,05,21,06,49,8.20
2009,05,21,06,50,8.20
2009,05,21,06,51,8.30
2009,05,21,06,52,8.30
2009,05,21,06,53,8.40
2009,05,21,06,54,8.50
2009,05,21,06,55,8.60
2009,05,21,06,56,8.70
2009,05,21,06,57,8.70
2009,05,21,06,58,8.80
2009,05,21,06,59,8.90
2009,05,21,07,00,9.00
2009,05,21,07,01,9.00
2009,05,21,07,02,9.10
2009,05,21,07,03,9.20
2009,05,21,07,04,9.20
2009,05,21,07,05,9.30
2009,05,21,07,06,9.40
2009,05,21,07,07,9.50
2009,05,21,07,08,9.60
2009,05,21,07,09,9.70
2009,05,21,07,10,9.80
2009,05,21,07,11,9.90
2009,05,21,07,12,10.00
2009,05,21,07,13,10.10
2009,05,21,07,14,10.20
2009,05,21,07,15,10.30
2009,05,21,07,16,10.30
2009,05,21,07,17,10.40
2009,05,21,07,18,10.40
2009,05,21,07,19,10.40
2009,05,21,07,20,10.40
2009,05,21,07,21,10.60
2009,05,21,07,22,10.60
2009,05,21,07,23,10.60
2009,05,21,07,24,10.60
2009,05,21,07,25,10.70
2009,05,21,07,26,10.80
2009,05,21,07,27,10.80
2009,05,21,07,28,10.90
2009,05,21,07,29,10.90
2009,05,21,07,30,10.90
2009,05,21,07,31,10.90
2009,05,21,07,32,10.90
2009,05,21,07,33,10.90
2009,05,21,07,34,11.00
2009,05,21,07,35,11.00
2009,05,21,07,36,11.10
2009,05,21,07,37,11.10
2009,05,21,07,38,11.10
2009,05,21,07,39,11.10
2009,05,21,07,40,11.20
2009,05,21,07,41,11.20
2009,05,21,07,42,11.30
2009,05,21,07,43,11.30
2009,05,21,07,44,11.30
2009,05,21,07,45,11.40
2009,05,21,07,46,11.40
2009,05,21,07,47,11.40
2009,05,21,07,48,11.40
2009,05,21,07,49,11.40
2009,05,21,07,50,11.40
2009,05,21,07,51,11.40
2009,05,21,07,52,11.50
2009,05,21,07,53,11.60
2009,05,21,07,54,11.60
2009,05,21,07,55,11.60
2009,05,21,07,56,11.60
2009,05,21,07,57,11.60
2009,05,21,07,58,11.70
2009,05,21,07,59,11.70
2009,05,21,08,00,11.80
2009,05,21,08,01,11.80
2009,05,21,08,02,11.80
2009,05,21,08,03,11.80
2009,05,21,08,04,11.90
2009,05,21,08,05,11.90
2009,05,21,08,06,11.90
2009,05,21,08,07,11.90
2009,05,21,08,08,11.90
2009,05,21,08,09,11.90
2009,05,21,08,10,11.90
2009,05,21,08,11,11.90
2009,05,21,08,12,11.90
2009,05,21,08,13,11.90
2009,05,21,08,14,11.90
2009,05,21,08,15,12.00
2009,05,21,08,16,12.00
2009,05,21,08,17,12.10
2009,05,21,08,18,12.20
2009,05,21,08,19,12.30
2009,05,21,08,20,12.30
2009,05,21,08,21,12.30
2009,05,21,08,22,12.30
2009,05,21,08,23,12.40
2009,05,21,08,24,12.50
2009,05,21,08,25,12.50
2009,05,21,08,26,12.50
2009,05,21,08,27,12.50
2009,05,21,08,28,12.50
2009,05,21,08,29,12.50
2009,05,21,08,30,12.50
2009,05,21,08,31,12.50
2009,05,21,08,32,12.50
2009,05,21,08,33,12.60
2009,05,21,08,34,12.60
2009,05,21,08,35,12.70
2009,05,21,08,36,12.70
2009,05,21,08,37,12.70
2009,05,21,08,38,12.70
2009,05,21,08,39,12.70
2009,05,21,08,40,12.70
2009,05,21,08,41,12.70
2009,05,21,08,42,12.70
2009,05,21,08,43,12.60
2009,05,21,08,44,12.60
2009,05,21,08,45,12.60
2009,05,21,08,46,12.60
2009,05,21,08,47,12.60
2009,05,21,08,48,12.60
2009,05,21,08,49,12.60
2009,05,21,08,50,12.60
2009,05,21,08,51,12.60
2009,05,21,08,52,12.60
2009,05,21,08,53,12.60
2009,05,21,08,54,12.60
2009,05,21,08,55,12.60
2009,05,21,08,56,12.60
2009,05,21,08,57,12.70
2009,05,21,08,58,12.70
2009,05,21,08,59,12.80
2009,05,21,09,00,12.80
2009,05,21,09,01,12.80
2009,05,21,09,02,12.90
2009,05,21,09,03,12.90
2009,05,21,09,04,12.90
2009,05,21,09,05,13.00
2009,05,21,09,06,13.00
2009,05,21,09,07,13.10
2009,05,21,09,08,13.20
2009,05,21,09,09,13.20
2009,05,21,09,10,13.30
2009,05,21,09,11,13.30
2009,05,21,09,12,13.30
2009,05,21,09,13,13.30
2009,05,21,09,14,13.30
2009,05,21,09,15,13.20
2009,05,21,09,16,13.20
2009,05,21,09,17,13.20
2009,05,21,09,18,13.10
2009,05,21,09,19,13.20
2009,05,21,09,20,13.20
2009,05,21,09,21,13.30
2009,05,21,09,22,13.30
2009,05,21,09,23,13.30
2009,05,21,09,24,13.30
2009,05,21,09,25,13.40
2009,05,21,09,26,13.40
2009,05,21,09,27,13.40
2009,05,21,09,28,13.50
2009,05,21,09,29,13.50
2009,05,21,09,30,13.50
2009,05,21,09,31,13.50
2009,05,21,09,32,13.50
2009,05,21,09,33,13.50
2009,05,21,09,34,13.50
2009,05,21,09,35,13.50
2009,05,21,09,36,13.50
2009,05,21,09,37,13.50
2009,05,21,09,38,13.50
2009,05,21,09,39,13.50
2009,05,21,09,40,13.50
2009,05,21,09,41,13.50
2009,05,21,09,42,13.60
2009,05,21,09,43,13.60
2009,05,21,09,44,13.60
2009,05,21,09,45,13.70
2009,05,21,09,46,13.70
2009,05,21,09,47,13.70
2009,05,21,09,48,13.80
2009,05,21,09,49,13.80
2009,05,21,09,50,13.80
2009,05,21,09,51,13.80
2009,05,21,09,52,13.70
2009,05,21,09,53,13.70
2009,05,21,09,54,13.70
2009,05,21,09,55,13.70
2009,05,21,09,56,13.70
2009,05,21,09,57,13.70
2009,05,21,09,58,13.70
2009,05,21,09,59,13.70
2009,05,21,10,00,13.70
2009,05,21,10,01,13.70
2009,05,21,10,02,13.80
2009,05,21,10,03,13.80
2009,05,21,10,04,13.80
2009,05,21,10,05,13.80
2009,05,21,10,06,13.80
2009,05,21,10,07,13.80
2009,05,21,10,08,13.80
2009,05,21,10,09,13.70
2009,05,21,10,10,13.60
2009,05,21,10,11,13.60
2009,05,21,10,12,13.60
2009,05,21,10,13,13.60
2009,05,21,10,14,13.60
2009,05,21,10,15,13.50
2009,05,21,10,16,13.50
2009,05,21,10,17,13.60
2009,05,21,10,18,13.60
2009,05,21,10,19,13.60
2009,05,21,10,20,13.70
2009,05,21,10,21,13.70
2009,05,21,10,22,13.80
2009,05,21,10,23,13.80
2009,05,21,10,24,13.80
2009,05,21,10,25,13.90
2009,05,21,10,26,13.90
2009,05,21,10,27,14.00
2009,05,21,10,28,14.10
2009,05,21,10,29,14.20
2009,05,21,10,30,14.20
2009,05,21,10,31,14.40
2009,05,21,10,32,14.50
2009,05,21,10,33,14.50
2009,05,21,10,34,14.60
2009,05,21,10,35,14.60
2009,05,21,10,36,14.60
2009,05,21,10,37,14.60
2009,05,21,10,38,14.60
2009,05,21,10,39,14.60
2009,05,21,10,40,14.60
2009,05,21,10,41,14.50
2009,05,21,10,42,14.50
2009,05,21,10,43,14.40
2009,05,21,10,44,14.30
2009,05,21,10,45,14.30
2009,05,21,10,46,14.30
2009,05,21,10,47,14.30
2009,05,21,10,48,14.30
2009,05,21,10,49,14.30
2009,05,21,10,50,14.20
2009,05,21,10,51,14.20
2009,05,21,10,52,14.20
2009,05,21,10,53,14.20
2009,05,21,10,54,14.20
2009,05,21,10,55,14.20
2009,05,21,10,56,14.20
2009,05,21,10,57,14.20
2009,05,21,10,58,14.20
2009,05,21,10,59,14.30
2009,05,21,11,00,14.40
2009,05,21,11,01,14.50
2009,05,21,11,02,14.50
2009,05,21,11,03,14.50
2009,05,21,11,04,14.40
2009,05,21,11,05,14.40
2009,05,21,11,06,14.50
2009,05,21,11,07,14.50
2009,05,21,11,08,14.40
2009,05,21,11,09,14.40
2009,05,21,11,10,14.50
2009,05,21,11,11,14.50
2009,05,21,11,12,14.50
2009,05,21,11,13,14.40
2009,05,21,11,14,14.20
2009,05,21,11,15,14.10
2009,05,21,11,16,14.00
2009,05,21,11,17,13.90
2009,05,21,11,18,14.00
2009,05,21,11,19,14.10
2009,05,21,11,20,14.10
2009,05,21,11,21,14.20
2009,05,21,11,22,14.20
2009,05,21,11,23,14.30
2009,05,21,11,24,14.50
2009,05,21,11,25,14.60
2009,05,21,11,26,14.70
2009,05,21,11,27,14.80
2009,05,21,11,28,14.80
2009,05,21,11,29,14.80
2009,05,21,11,30,14.90
2009,05,21,11,31,14.90
2009,05,21,11,32,15.00
2009,05,21,11,33,15.10
2009,05,21,11,34,15.00
2009,05,21,11,35,15.00
2009,05,21,11,36,15.00
2009,05,21,11,37,15.10
2009,05,21,11,38,15.20
2009,05,21,11,39,15.20
2009,05,21,11,40,15.30
2009,05,21,11,41,15.30
2009,05,21,11,42,15.20
2009,05,21,11,43,15.10
2009,05,21,11,44,15.00
2009,05,21,11,45,14.90
2009,05,21,11,46,14.80
2009,05,21,11,47,14.80
2009,05,21,11,48,14.80
2009,05,21,11,49,14.80
2009,05,21,11,50,14.90
2009,05,21,11,51,14.90
2009,05,21,11,52,14.90
2009,05,21,11,53,14.90
2009,05,21,11,54,14.90
2009,05,21,11,55,14.90
2009,05,21,11,56,14.90
2009,05,21,11,57,15.00
2009,05,21,11,58,15.10
2009,05,21,11,59,15.20
2009,05,21,12,00,15.30
2009,05,21,12,01,15.40
2009,05,21,12,02,15.50
2009,05,21,12,03,15.50
2009,05,21,12,04,15.50
2009,05,21,12,05,15.40
2009,05,21,12,06,15.40
2009,05,21,12,07,15.40
2009,05,21,12,08,15.30
2009,05,21,12,09,15.30
2009,05,21,12,10,15.30
2009,05,21,12,11,15.30
2009,05,21,12,12,15.30
2009,05,21,12,13,15.20
2009,05,21,12,14,15.30
2009,05,21,12,15,15.30
2009,05,21,12,16,15.50
2009,05,21,12,17,15.60
2009,05,21,12,18,15.60
2009,05,21,12,19,15.60
2009,05,21,12,20,15.60
2009,05,21,12,21,15.50
2009,05,21,12,22,15.50
2009,05,21,12,23,15.50
2009,05,21,12,24,15.50
2009,05,21,12,25,15.50
2009,05,21,12,26,15.50
2009,05,21,12,27,15.50
2009,05,21,12,28,15.40
2009,05,21,12,29,15.40
2009,05,21,12,30,15.30
2009,05,21,12,31,15.30
2009,05,21,12,32,15.30
2009,05,21,12,33,15.40
2009,05,21,12,34,15.50
2009,05,21,12,35,15.60
2009,05,21,12,36,15.70
2009,05,21,12,37,15.80
2009,05,21,12,38,15.90
2009,05,21,12,39,15.90
2009,05,21,12,40,15.80
2009,05,21,12,41,15.60
2009,05,21,12,42,15.50
2009,05,21,12,43,15.40
2009,05,21,12,44,15.40
2009,05,21,12,45,15.40
2009,05,21,12,46,15.40
2009,05,21,12,47,15.50
2009,05,21,12,48,15.60
2009,05,21,12,49,15.60
2009,05,21,12,50,15.70
2009,05,21,12,51,15.70
2009,05,21,12,52,15.80
2009,05,21,12,53,15.80
2009,05,21,12,54,15.80
2009,05,21,12,55,15.80
2009,05,21,12,56,15.80
2009,05,21,12,57,15.80
2009,05,21,12,58,15.80
2009,05,21,12,59,15.70
2009,05,21,13,00,15.60
2009,05,21,13,01,15.60
2009,05,21,13,02,15.60
2009,05,21,13,03,15.60
2009,05,21,13,04,15.70
2009,05,21,13,05,15.80
2009,05,21,13,06,15.80
2009,05,21,13,07,15.80
2009,05,21,13,08,15.80
2009,05,21,13,09,15.80
2009,05,21,13,10,15.70
2009,05,21,13,11,15.60
2009,05,21,13,12,15.60
2009,05,21,13,13,15.60
2009,05,21,13,14,15.60
2009,05,21,13,15,15.60
2009,05,21,13,16,15.60
2009,05,21,13,17,15.60
2009,05,21,13,18,15.50
2009,05,21,13,19,15.50
2009,05,21,13,20,15.60
2009,05,21,13,21,15.60
2009,05,21,13,22,15.60
2009,05,21,13,23,15.60
2009,05,21,13,24,15.60
2009,05,21,13,25,15.60
2009,05,21,13,26,15.70
2009,05,21,13,27,15.70
2009,05,21,13,28,15.70
2009,05,21,13,29,15.70
2009,05,21,13,30,15.70
2009,05,21,13,31,15.60
2009,05,21,13,32,15.60
2009,05,21,13,33,15.60
2009,05,21,13,34,15.60
2009,05,21,13,35,15.70
2009,05,21,13,36,15.70
2009,05,21,13,37,15.80
2009,05,21,13,38,15.80
2009,05,21,13,39,15.80
2009,05,21,13,40,15.90
2009,05,21,13,41,15.80
2009,05,21,13,42,15.80
2009,05,21,13,43,15.80
2009,05,21,13,44,15.90
2009,05,21,13,45,15.90
2009,05,21,13,46,16.00
2009,05,21,13,47,16.00
2009,05,21,13,48,15.90
2009,05,21,13,49,16.00
2009,05,21,13,50,16.10
2009,05,21,13,51,16.10
2009,05,21,13,52,16.10
2009,05,21,13,53,16.10
2009,05,21,13,54,16.10
2009,05,21,13,55,16.10
2009,05,21,13,56,16.10
2009,05,21,13,57,16.20
2009,05,21,13,58,16.20
2009,05,21,13,59,16.10
2009,05,21,14,00,16.10
2009,05,21,14,01,16.00
2009,05,21,14,02,15.90
2009,05,21,14,03,15.80
2009,05,21,14,04,15.80
2009,05,21,14,05,15.70
2009,05,21,14,06,15.70
2009,05,21,14,07,15.70
2009,05,21,14,08,15.70
2009,05,21,14,09,15.70
2009,05,21,14,10,15.70
2009,05,21,14,11,15.70
2009,05,21,14,12,15.80
2009,05,21,14,13,15.80
2009,05,21,14,14,15.90
2009,05,21,14,15,16.00
2009,05,21,14,16,16.10
2009,05,21,14,17,16.10
2009,05,21,14,18,16.20
2009,05,21,14,19,16.30
2009,05,21,14,20,16.30
2009,05,21,14,21,16.30
2009,05,21,14,22,16.40
2009,05,21,14,23,16.40
2009,05,21,14,24,16.50
2009,05,21,14,25,16.60
2009,05,21,14,26,16.60
2009,05,21,14,27,16.70
2009,05,21,14,28,16.70
2009,05,21,14,29,16.70
2009,05,21,14,30,16.70
2009,05,21,14,31,16.80
2009,05,21,14,32,16.90
2009,05,21,14,33,17.00
2009,05,21,14,34,17.00
2009,05,21,14,35,17.10
2009,05,21,14,36,17.30
2009,05,21,14,37,17.30
2009,05,21,14,38,17.40
2009,05,21,14,39,17.50
2009,05,21,14,40,17.60
2009,05,21,14,41,17.70
2009,05,21,14,42,17.70
2009,05,21,14,43,17.70
2009,05,21,14,44,17.70
2009,05,21,14,45,17.70
2009,05,21,14,46,17.70
2009,05,21,14,47,17.70
2009,05,21,14,48,17.70
2009,05,21,14,49,17.70
2009,05,21,14,50,17.70
2009,05,21,14,51,17.70
2009,05,21,14,52,17.70
2009,05,21,14,53,17.70
2009,05,21,14,54,17.60
2009,05,21,14,55,17.60
2009,05,21,14,56,17.60
2009,05,21,14,57,17.60
2009,05,21,14,58,17.60
2009,05,21,14,59,17.50
2009,05,21,15,00,17.50
2009,05,21,15,01,17.40
2009,05,21,15,02,17.30
2009,05,21,15,03,17.30
2009,05,21,15,04,17.20
2009,05,21,15,05,17.10
2009,05,21,15,06,17.00
2009,05,21,15,07,16.90
2009,05,21,15,08,16.90
2009,05,21,15,09,16.80
2009,05,21,15,10,16.80
2009,05,21,15,11,16.80
2009,05,21,15,12,16.80
2009,05,21,15,13,16.70
2009,05,21,15,14,16.70
2009,05,21,15,15,16.70
2009,05,21,15,16,16.70
2009,05,21,15,17,16.70
2009,05,21,15,18,16.70
2009,05,21,15,19,16.70
2009,05,21,15,20,16.70
2009,05,21,15,21,16.80
2009,05,21,15,22,16.90
2009,05,21,15,23,17.00
2009,05,21,15,24,17.00
2009,05,21,15,25,17.00
2009,05,21,15,26,17.00
2009,05,21,15,27,17.00
2009,05,21,15,28,17.00
2009,05,21,15,29,17.10
2009,05,21,15,30,17.10
2009,05,21,15,31,17.10
2009,05,21,15,32,17.10
2009,05,21,15,33,17.10
2009,05,21,15,34,17.10
2009,05,21,15,35,17.10
2009,05,21,15,36,17.10
2009,05,21,15,37,17.10
2009,05,21,15,38,17.10
2009,05,21,15,39,17.10
2009,05,21,15,40,17.00
2009,05,21,15,41,17.00
2009,05,21,15,42,16.90
2009,05,21,15,43,16.90
2009,05,21,15,44,16.80
2009,05,21,15,45,16.80
2009,05,21,15,46,16.80
2009,05,21,15,47,16.80
2009,05,21,15,48,16.80
2009,05,21,15,49,16.80
2009,05,21,15,50,16.80
2009,05,21,15,51,16.80
2009,05,21,15,52,16.80
2009,05,21,15,53,16.90
2009,05,21,15,54,17.00
2009,05,21,15,55,17.00
2009,05,21,15,56,17.10
2009,05,21,15,57,17.10
2009,05,21,15,58,17.20
2009,05,21,15,59,17.20
2009,05,21,16,00,17.10
2009,05,21,16,01,17.00
2009,05,21,16,02,17.00
2009,05,21,16,03,17.00
2009,05,21,16,04,16.90
2009,05,21,16,05,16.90
2009,05,21,16,06,17.00
2009,05,21,16,07,17.10
2009,05,21,16,08,17.20
2009,05,21,16,09,17.30
2009,05,21,16,10,17.30
2009,05,21,16,11,17.30
2009,05,21,16,12,17.30
2009,05,21,16,13,17.30
2009,05,21,16,14,17.30
2009,05,21,16,15,17.20
2009,05,21,16,16,17.20
2009,05,21,16,17,17.20
2009,05,21,16,18,17.10
2009,05,21,16,19,17.10
2009,05,21,16,20,17.10
2009,05,21,16,21,17.10
2009,05,21,16,22,17.10
2009,05,21,16,23,17.10
2009,05,21,16,24,17.20
2009,05,21,16,25,17.20
2009,05,21,16,26,17.30
2009,05,21,16,27,17.50
2009,05,21,16,28,17.60
2009,05,21,16,29,17.70
2009,05,21,16,30,17.80
2009,05,21,16,31,17.80
2009,05,21,16,32,17.90
2009,05,21,16,33,17.90
2009,05,21,16,34,17.90
2009,05,21,16,35,17.80
2009,05,21,16,36,17.70
2009,05,21,16,37,17.60
2009,05,21,16,38,17.50
2009,05,21,16,39,17.40
2009,05,21,16,40,17.30
2009,05,21,16,41,17.20
2009,05,21,16,42,17.20
2009,05,21,16,43,17.20
2009,05,21,16,44,17.10
2009,05,21,16,45,17.20
2009,05,21,16,46,17.20
2009,05,21,16,47,17.10
2009,05,21,16,48,17.10
2009,05,21,16,49,17.10
2009,05,21,16,50,17.10
2009,05,21,16,51,17.20
2009,05,21,16,52,17.20
2009,05,21,16,53,17.20
2009,05,21,16,54,17.20
2009,05,21,16,55,17.20
2009,05,21,16,56,17.30
2009,05,21,16,57,17.30
2009,05,21,16,58,17.40
2009,05,21,16,59,17.40
2009,05,21,17,00,17.40
2009,05,21,17,01,17.50
2009,05,21,17,02,17.50
2009,05,21,17,03,17.50
2009,05,21,17,04,17.50
2009,05,21,17,05,17.60
2009,05,21,17,06,17.70
2009,05,21,17,07,17.80
2009,05,21,17,08,17.90
2009,05,21,17,09,17.90
2009,05,21,17,10,17.90
2009,05,21,17,11,18.00
2009,05,21,17,12,18.10
2009,05,21,17,13,18.10
2009,05,21,17,14,18.20
2009,05,21,17,15,18.20
2009,05,21,17,16,18.20
2009,05,21,17,17,18.20
2009,05,21,17,18,18.20
2009,05,21,17,19,18.20
2009,05,21,17,20,18.20
2009,05,21,17,21,18.20
2009,05,21,17,22,18.20
2009,05,21,17,23,18.20
2009,05,21,17,24,18.20
2009,05,21,17,25,18.10
2009,05,21,17,26,17.90
2009,05,21,17,27,17.70
2009,05,21,17,28,17.70
2009,05,21,17,29,17.50
2009,05,21,17,30,17.50
2009,05,21,17,31,17.40
2009,05,21,17,32,17.40
2009,05,21,17,33,17.40
2009,05,21,17,34,17.40
2009,05,21,17,35,17.40
2009,05,21,17,36,17.40
2009,05,21,17,37,17.40
2009,05,21,17,38,17.30